Time,TemperatureF,DewpointF,PressureIn,WindDirection,WindDirectionDegrees,WindSpeedMPH,WindSpeedGustMPH,Humidity,HourlyPrecipIn,Conditions,Clouds,dailyrainin,SoftwareType,DateUTC
2013-09-14 00:01:00,81.4,76.3,29.42,NW,309,0.0,0.0,85,0.00,,,0.00,VWS V14.01,2013-09-14 04:01:00,
2013-09-14 00:02:00,81.4,76.3,29.42,NW,309,0.0,0.0,85,0.00,,,0.00,VWS V14.01,2013-09-14 04:02:00,
2013-09-14 00:07:00,81.5,76.7,29.42,NW,309,0.0,0.0,85,0.00,,,0.00,VWS V14.01,2013-09-14 04:07:00,
2013-09-14 00:12:00,81.3,76.4,29.42,NW,309,0.0,0.0,85,0.00,,,0.00,VWS V14.01,2013-09-14 04:12:00,
2013-09-14 00:17:00,81.4,76.6,29.43,NW,309,0.0,0.0,85,0.00,,,0.00,VWS V14.01,2013-09-14 04:17:00,
2013-09-14 00:22:00,81.3,76.5,29.42,NW,309,0.0,0.0,85,0.00,,,0.00,VWS V14.01,2013-09-14 04:22:00,
2013-09-14 00:27:00,81.3,76.5,29.42,NW,309,0.0,0.0,85,0.00,,,0.00,VWS V14.01,2013-09-14 04:27:00,
2013-09-14 00:32:00,81.5,76.6,29.42,NW,309,0.0,0.0,85,0.00,,,0.00,VWS V14.01,2013-09-14 04:32:00,
2013-09-14 00:37:00,81.3,76.4,29.42,NW,309,0.0,0.0,85,0.00,,,0.00,VWS V14.01,2013-09-14 04:37:00,
2013-09-14 00:42:00,81.4,76.4,29.42,NW,309,0.0,0.0,85,0.00,,,0.00,VWS V14.01,2013-09-14 04:42:00,
2013-09-14 00:47:00,81.5,76.4,29.42,NW,309,0.0,0.0,85,0.00,,,0.00,VWS V14.01,2013-09-14 04:47:00,
2013-09-14 00:52:00,81.4,76.5,29.42,NW,309,0.0,0.0,85,0.00,,,0.00,VWS V14.01,2013-09-14 04:52:00,
2013-09-14 00:57:00,81.4,76.4,29.42,NW,309,0.0,0.0,85,0.00,,,0.00,VWS V14.01,2013-09-14 04:57:00,
2013-09-14 01:02:00,81.5,76.5,29.42,NW,309,0.0,0.0,85,0.00,,,0.00,VWS V14.01,2013-09-14 05:02:00,
2013-09-14 01:07:00,81.3,76.3,29.42,NW,309,0.0,0.0,85,0.00,,,0.00,VWS V14.01,2013-09-14 05:07:00,
2013-09-14 01:12:00,81.3,76.3,29.42,NW,309,0.0,0.0,85,0.00,,,0.00,VWS V14.01,2013-09-14 05:12:00,
2013-09-14 01:17:00,81.6,76.6,29.42,NW,309,0.0,0.0,85,0.00,,,0.00,VWS V14.01,2013-09-14 05:17:00,
2013-09-14 01:22:00,81.5,76.6,29.42,NW,309,0.0,0.0,85,0.00,,,0.00,VWS V14.01,2013-09-14 05:22:00,
2013-09-14 01:27:00,81.5,76.6,29.42,NW,309,0.0,0.0,85,0.00,,,0.00,VWS V14.01,2013-09-14 05:27:00,
2013-09-14 01:32:00,81.5,76.7,29.42,NW,309,0.0,0.0,85,0.00,,,0.00,VWS V14.01,2013-09-14 05:32:00,
2013-09-14 01:37:00,81.5,76.6,29.42,NW,309,0.0,0.0,85,0.00,,,0.00,VWS V14.01,2013-09-14 05:37:00,
2013-09-14 01:42:00,81.5,76.7,29.42,NW,309,0.0,0.0,86,0.00,,,0.00,VWS V14.01,2013-09-14 05:42:00,
2013-09-14 01:47:00,81.4,76.6,29.42,NW,309,0.0,0.0,86,0.00,,,0.00,VWS V14.01,2013-09-14 05:47:00,
2013-09-14 01:52:00,81.4,76.7,29.42,NW,309,0.0,0.0,86,0.00,,,0.00,VWS V14.01,2013-09-14 05:52:00,
2013-09-14 01:57:00,81.4,76.7,29.42,NW,309,0.0,0.0,86,0.00,,,0.00,VWS V14.01,2013-09-14 05:57:00,
2013-09-14 02:02:00,81.4,76.8,29.42,NW,309,0.0,0.0,86,0.00,,,0.00,VWS V14.01,2013-09-14 06:02:00,
2013-09-14 02:06:00,81.3,76.8,29.42,NW,309,0.0,0.0,86,0.00,,,0.00,VWS V14.01,2013-09-14 06:06:00,
2013-09-14 02:11:00,81.2,76.8,29.42,NW,309,0.0,0.0,86,0.00,,,0.00,VWS V14.01,2013-09-14 06:11:00,
2013-09-14 02:16:00,81.1,76.7,29.41,NW,309,0.0,0.0,86,0.00,,,0.00,VWS V14.01,2013-09-14 06:16:00,
2013-09-14 02:21:00,81.1,76.7,29.41,NW,309,0.0,0.0,86,0.00,,,0.00,VWS V14.01,2013-09-14 06:21:00,
2013-09-14 02:26:00,81.0,76.7,29.41,NW,309,0.0,0.0,87,0.00,,,0.00,VWS V14.01,2013-09-14 06:26:00,
2013-09-14 02:31:00,81.1,76.8,29.41,NW,309,0.0,0.0,87,0.00,,,0.00,VWS V14.01,2013-09-14 06:31:00,
2013-09-14 02:36:00,81.0,76.7,29.41,NW,309,0.0,0.0,87,0.00,,,0.00,VWS V14.01,2013-09-14 06:36:00,
2013-09-14 02:41:00,81.0,76.7,29.41,NW,309,0.0,0.0,87,0.00,,,0.00,VWS V14.01,2013-09-14 06:41:00,
2013-09-14 02:46:00,81.0,76.7,29.41,NW,309,0.0,0.0,87,0.00,,,0.00,VWS V14.01,2013-09-14 06:46:00,
2013-09-14 02:51:00,81.0,76.7,29.41,NW,309,0.0,0.0,87,0.00,,,0.00,VWS V14.01,2013-09-14 06:51:00,
2013-09-14 02:56:00,81.0,76.7,29.41,NW,309,0.0,0.0,87,0.00,,,0.00,VWS V14.01,2013-09-14 06:56:00,
2013-09-14 03:01:00,80.7,76.4,29.41,NW,309,0.0,0.0,87,0.00,,,0.00,VWS V14.01,2013-09-14 07:01:00,
2013-09-14 03:06:00,80.6,76.4,29.41,NW,309,0.0,0.0,87,0.00,,,0.00,VWS V14.01,2013-09-14 07:06:00,
2013-09-14 03:11:00,80.4,76.3,29.41,NW,309,0.0,0.0,87,0.00,,,0.00,VWS V14.01,2013-09-14 07:11:00,
2013-09-14 03:16:00,80.5,76.5,29.41,NW,309,0.0,0.0,88,0.00,,,0.00,VWS V14.01,2013-09-14 07:16:00,
2013-09-14 03:21:00,80.4,76.3,29.41,NW,309,0.0,0.0,87,0.00,,,0.00,VWS V14.01,2013-09-14 07:21:00,
2013-09-14 03:26:00,80.5,76.4,29.41,NW,309,0.0,0.0,88,0.00,,,0.00,VWS V14.01,2013-09-14 07:26:00,
2013-09-14 03:31:00,80.4,76.4,29.40,NW,309,0.0,0.0,88,0.00,,,0.00,VWS V14.01,2013-09-14 07:31:00,
2013-09-14 03:36:00,80.3,76.3,29.40,NW,309,0.0,0.0,88,0.00,,,0.00,VWS V14.01,2013-09-14 07:36:00,
2013-09-14 03:41:00,80.3,76.4,29.40,NW,309,0.0,0.0,88,0.00,,,0.00,VWS V14.01,2013-09-14 07:41:00,
2013-09-14 03:46:00,80.2,76.4,29.40,NW,309,0.0,0.0,88,0.00,,,0.00,VWS V14.01,2013-09-14 07:46:00,
2013-09-14 03:51:00,80.3,76.5,29.40,NW,309,0.0,0.0,88,0.00,,,0.00,VWS V14.01,2013-09-14 07:51:00,
2013-09-14 03:56:00,80.2,76.4,29.40,NW,309,0.0,0.0,88,0.00,,,0.00,VWS V14.01,2013-09-14 07:56:00,
2013-09-14 04:01:00,80.2,76.3,29.40,NW,309,0.0,0.0,88,0.00,,,0.00,VWS V14.01,2013-09-14 08:01:00,
2013-09-14 04:06:00,80.2,76.5,29.40,NW,309,0.0,0.0,88,0.00,,,0.00,VWS V14.01,2013-09-14 08:06:00,
2013-09-14 04:11:00,80.1,76.6,29.40,NW,309,0.0,0.0,89,0.00,,,0.00,VWS V14.01,2013-09-14 08:11:00,
2013-09-14 04:16:00,80.1,76.6,29.40,NW,309,0.0,0.0,89,0.00,,,0.00,VWS V14.01,2013-09-14 08:16:00,
2013-09-14 04:21:00,80.3,76.8,29.40,NW,309,0.0,0.0,89,0.00,,,0.00,VWS V14.01,2013-09-14 08:21:00,
2013-09-14 04:26:00,80.2,76.6,29.40,NW,309,0.0,0.0,89,0.00,,,0.00,VWS V14.01,2013-09-14 08:26:00,
2013-09-14 04:31:00,80.1,76.6,29.40,NW,309,0.0,0.0,89,0.00,,,0.00,VWS V14.01,2013-09-14 08:31:00,
2013-09-14 04:36:00,80.0,76.5,29.40,NW,309,0.0,0.0,89,0.00,,,0.00,VWS V14.01,2013-09-14 08:36:00,
2013-09-14 04:41:00,80.0,76.7,29.40,NW,309,0.0,0.0,90,0.00,,,0.00,VWS V14.01,2013-09-14 08:41:00,
2013-09-14 04:46:00,80.0,76.6,29.40,NW,309,0.0,0.0,90,0.00,,,0.00,VWS V14.01,2013-09-14 08:46:00,
2013-09-14 04:51:00,80.0,76.7,29.40,NW,309,0.0,0.0,90,0.00,,,0.00,VWS V14.01,2013-09-14 08:51:00,
2013-09-14 04:56:00,79.7,76.5,29.40,NW,309,0.0,0.0,90,0.00,,,0.00,VWS V14.01,2013-09-14 08:56:00,
2013-09-14 05:01:00,79.8,76.6,29.40,NW,309,0.0,0.0,90,0.00,,,0.00,VWS V14.01,2013-09-14 09:01:00,
2013-09-14 05:06:00,79.8,76.6,29.40,NW,309,0.0,0.0,90,0.00,,,0.00,VWS V14.01,2013-09-14 09:06:00,
2013-09-14 05:11:00,79.7,76.5,29.40,NW,309,0.0,0.0,90,0.00,,,0.00,VWS V14.01,2013-09-14 09:11:00,
2013-09-14 05:16:00,79.8,76.6,29.40,NW,309,0.0,0.0,90,0.00,,,0.00,VWS V14.01,2013-09-14 09:16:00,
2013-09-14 05:21:00,79.7,76.5,29.40,NW,309,0.0,0.0,90,0.00,,,0.00,VWS V14.01,2013-09-14 09:21:00,
2013-09-14 05:26:00,79.7,76.5,29.40,NW,309,0.0,0.0,90,0.00,,,0.00,VWS V14.01,2013-09-14 09:26:00,
2013-09-14 05:31:00,79.8,76.6,29.40,NW,309,0.0,0.0,90,0.00,,,0.00,VWS V14.01,2013-09-14 09:31:00,
2013-09-14 05:36:00,79.7,76.5,29.40,NW,309,0.0,0.0,90,0.00,,,0.00,VWS V14.01,2013-09-14 09:36:00,
2013-09-14 05:41:00,79.7,76.5,29.40,NW,309,0.0,0.0,90,0.00,,,0.00,VWS V14.01,2013-09-14 09:41:00,
2013-09-14 05:46:00,79.3,76.2,29.40,NW,309,0.0,0.0,90,0.00,,,0.00,VWS V14.01,2013-09-14 09:46:00,
2013-09-14 05:51:00,79.4,76.3,29.40,NW,309,0.0,0.0,90,0.00,,,0.00,VWS V14.01,2013-09-14 09:51:00,
2013-09-14 05:56:00,79.3,76.2,29.41,NW,309,0.0,0.0,90,0.00,,,0.00,VWS V14.01,2013-09-14 09:56:00,
2013-09-14 06:01:00,79.3,76.2,29.41,NW,309,0.0,0.0,90,0.00,,,0.00,VWS V14.01,2013-09-14 10:01:00,
2013-09-14 06:06:00,79.2,76.1,29.41,NW,309,0.0,0.0,90,0.00,,,0.00,VWS V14.01,2013-09-14 10:06:00,
2013-09-14 06:11:00,79.2,76.1,29.41,NW,309,0.0,0.0,90,0.00,,,0.00,VWS V14.01,2013-09-14 10:11:00,
2013-09-14 06:16:00,79.1,76.1,29.41,NW,309,0.0,0.0,90,0.00,,,0.00,VWS V14.01,2013-09-14 10:16:00,
2013-09-14 06:21:00,79.3,76.3,29.41,NW,309,0.0,0.0,91,0.00,,,0.00,VWS V14.01,2013-09-14 10:21:00,
2013-09-14 06:26:00,79.1,76.1,29.41,NW,309,0.0,0.0,91,0.00,,,0.00,VWS V14.01,2013-09-14 10:26:00,
2013-09-14 06:31:00,79.1,76.1,29.41,NW,309,0.0,0.0,90,0.00,,,0.00,VWS V14.01,2013-09-14 10:31:00,
2013-09-14 06:36:00,79.1,76.1,29.41,NW,309,0.0,0.0,90,0.00,,,0.00,VWS V14.01,2013-09-14 10:36:00,
2013-09-14 06:41:00,79.0,76.0,29.41,NW,309,0.0,0.0,90,0.00,,,0.00,VWS V14.01,2013-09-14 10:41:00,
2013-09-14 06:46:00,78.8,75.8,29.42,NW,309,0.0,0.0,91,0.00,,,0.00,VWS V14.01,2013-09-14 10:46:00,
2013-09-14 06:51:00,78.9,75.9,29.42,NW,309,0.0,0.0,91,0.00,,,0.00,VWS V14.01,2013-09-14 10:51:00,
2013-09-14 06:56:00,78.8,75.8,29.42,NW,309,0.0,0.0,91,0.00,,,0.00,VWS V14.01,2013-09-14 10:56:00,
2013-09-14 07:01:00,78.9,75.9,29.42,NW,309,0.0,0.0,91,0.00,,,0.00,VWS V14.01,2013-09-14 11:01:00,
2013-09-14 07:06:00,78.8,75.9,29.42,NW,309,0.0,0.0,91,0.00,,,0.00,VWS V14.01,2013-09-14 11:06:00,
2013-09-14 07:11:00,78.7,75.8,29.42,NW,309,0.0,0.0,91,0.00,,,0.00,VWS V14.01,2013-09-14 11:11:00,
2013-09-14 07:16:00,78.8,75.9,29.43,NW,309,0.0,0.0,91,0.00,,,0.00,VWS V14.01,2013-09-14 11:16:00,
2013-09-14 07:21:00,78.8,75.9,29.43,NW,309,0.0,0.0,91,0.00,,,0.00,VWS V14.01,2013-09-14 11:21:00,
2013-09-14 07:26:00,78.7,75.8,29.43,NW,309,0.0,0.0,91,0.00,,,0.00,VWS V14.01,2013-09-14 11:26:00,
2013-09-14 07:31:00,78.4,75.5,29.43,NW,309,0.0,0.0,91,0.00,,,0.00,VWS V14.01,2013-09-14 11:31:00,
2013-09-14 07:35:00,78.4,75.6,29.43,NW,309,0.0,0.0,91,0.00,,,0.00,VWS V14.01,2013-09-14 11:35:00,
2013-09-14 07:40:00,78.4,75.6,29.44,NW,309,0.0,0.0,91,0.00,,,0.00,VWS V14.01,2013-09-14 11:40:00,
2013-09-14 07:45:00,78.7,75.9,29.44,NW,309,0.0,0.0,91,0.00,,,0.00,VWS V14.01,2013-09-14 11:45:00,
2013-09-14 07:50:00,78.5,75.7,29.44,NW,309,0.0,0.0,91,0.00,,,0.00,VWS V14.01,2013-09-14 11:50:00,
2013-09-14 07:55:00,78.8,76.1,29.44,NW,309,0.0,0.0,91,0.00,,,0.00,VWS V14.01,2013-09-14 11:55:00,
2013-09-14 08:00:00,78.8,76.1,29.44,NW,309,0.0,0.0,91,0.00,,,0.00,VWS V14.01,2013-09-14 12:00:00,
2013-09-14 08:05:00,78.8,76.1,29.45,NW,309,0.0,0.0,91,0.00,,,0.00,VWS V14.01,2013-09-14 12:05:00,
2013-09-14 08:10:00,78.9,76.2,29.45,NW,309,0.0,0.0,91,0.00,,,0.00,VWS V14.01,2013-09-14 12:10:00,
2013-09-14 08:15:00,79.0,76.3,29.45,NW,309,0.0,0.0,92,0.00,,,0.00,VWS V14.01,2013-09-14 12:15:00,
2013-09-14 08:20:00,79.3,76.6,29.45,NW,309,0.0,0.0,91,0.00,,,0.00,VWS V14.01,2013-09-14 12:20:00,
2013-09-14 08:25:00,79.5,76.8,29.45,NW,309,0.0,0.0,91,0.00,,,0.00,VWS V14.01,2013-09-14 12:25:00,
2013-09-14 08:30:00,79.8,77.0,29.45,NW,309,0.0,0.0,91,0.00,,,0.00,VWS V14.01,2013-09-14 12:30:00,
2013-09-14 08:35:00,80.0,77.1,29.45,NW,309,0.0,0.0,91,0.00,,,0.00,VWS V14.01,2013-09-14 12:35:00,
2013-09-14 08:40:00,80.1,77.2,29.46,NW,309,0.0,0.0,91,0.00,,,0.00,VWS V14.01,2013-09-14 12:40:00,
2013-09-14 08:45:00,80.4,77.4,29.46,NW,309,0.0,0.0,90,0.00,,,0.00,VWS V14.01,2013-09-14 12:45:00,
2013-09-14 08:50:00,80.5,77.3,29.47,NW,309,0.0,0.0,90,0.00,,,0.00,VWS V14.01,2013-09-14 12:50:00,
2013-09-14 08:55:00,80.5,77.1,29.47,NW,309,0.0,0.0,89,0.00,,,0.00,VWS V14.01,2013-09-14 12:55:00,
2013-09-14 09:00:00,81.1,77.2,29.47,NW,309,0.0,0.0,88,0.00,,,0.00,VWS V14.01,2013-09-14 13:00:00,
2013-09-14 09:05:00,81.5,77.1,29.47,NW,309,0.0,0.0,86,0.00,,,0.00,VWS V14.01,2013-09-14 13:05:00,
2013-09-14 09:10:00,81.3,76.4,29.47,NW,309,0.0,0.0,85,0.00,,,0.00,VWS V14.01,2013-09-14 13:10:00,
2013-09-14 09:15:00,81.7,76.4,29.47,NW,309,0.0,0.0,84,0.00,,,0.00,VWS V14.01,2013-09-14 13:15:00,
2013-09-14 09:20:00,81.8,75.7,29.48,NW,309,0.0,0.0,82,0.00,,,0.00,VWS V14.01,2013-09-14 13:20:00,
2013-09-14 09:25:00,82.2,76.0,29.48,NW,309,0.0,0.0,82,0.00,,,0.00,VWS V14.01,2013-09-14 13:25:00,
2013-09-14 09:30:00,82.6,75.6,29.48,NW,309,0.0,0.0,79,0.00,,,0.00,VWS V14.01,2013-09-14 13:30:00,
2013-09-14 09:35:00,83.2,75.7,29.48,NW,309,0.0,0.0,78,0.00,,,0.00,VWS V14.01,2013-09-14 13:35:00,
2013-09-14 09:40:00,83.4,75.9,29.48,North,356,0.0,0.0,78,0.00,,,0.00,VWS V14.01,2013-09-14 13:40:00,
2013-09-14 09:45:00,83.8,75.9,29.48,North,356,0.0,0.0,77,0.00,,,0.00,VWS V14.01,2013-09-14 13:45:00,
2013-09-14 09:50:00,84.0,76.1,29.49,North,356,0.0,0.0,77,0.00,,,0.00,VWS V14.01,2013-09-14 13:50:00,
2013-09-14 09:55:00,84.4,75.5,29.49,North,356,0.0,0.0,75,0.00,,,0.00,VWS V14.01,2013-09-14 13:55:00,
2013-09-14 10:00:00,84.5,75.8,29.49,North,356,0.0,0.0,75,0.00,,,0.00,VWS V14.01,2013-09-14 14:00:00,
2013-09-14 10:05:00,84.9,75.8,29.49,North,356,0.0,0.0,74,0.00,,,0.00,VWS V14.01,2013-09-14 14:05:00,
2013-09-14 10:10:00,85.2,75.6,29.49,North,356,0.0,0.0,73,0.00,,,0.00,VWS V14.01,2013-09-14 14:10:00,
2013-09-14 10:15:00,85.6,76.0,29.50,North,356,0.0,0.0,73,0.00,,,0.00,VWS V14.01,2013-09-14 14:15:00,
2013-09-14 10:20:00,85.7,75.8,29.50,North,356,0.0,0.0,72,0.00,,,0.00,VWS V14.01,2013-09-14 14:20:00,
2013-09-14 10:25:00,85.8,75.9,29.50,North,356,0.0,0.0,72,0.00,,,0.00,VWS V14.01,2013-09-14 14:25:00,
2013-09-14 10:30:00,85.8,75.7,29.50,North,356,0.0,0.0,72,0.00,,,0.00,VWS V14.01,2013-09-14 14:30:00,
2013-09-14 10:35:00,86.1,75.8,29.50,West,278,0.0,0.0,72,0.00,,,0.00,VWS V14.01,2013-09-14 14:35:00,
2013-09-14 10:40:00,86.4,75.9,29.50,West,278,0.0,0.0,71,0.00,,,0.00,VWS V14.01,2013-09-14 14:40:00,
2013-09-14 10:45:00,86.9,76.3,29.50,West,278,0.0,0.0,71,0.00,,,0.00,VWS V14.01,2013-09-14 14:45:00,
2013-09-14 10:50:00,87.0,75.2,29.50,West,278,0.0,0.0,68,0.00,,,0.00,VWS V14.01,2013-09-14 14:50:00,
2013-09-14 10:55:00,87.0,75.7,29.50,West,278,0.0,0.0,69,0.00,,,0.00,VWS V14.01,2013-09-14 14:55:00,
2013-09-14 11:00:00,87.4,75.2,29.50,West,278,0.0,0.0,67,0.00,,,0.00,VWS V14.01,2013-09-14 15:00:00,
2013-09-14 11:05:00,87.5,74.9,29.51,West,278,0.0,0.0,66,0.00,,,0.00,VWS V14.01,2013-09-14 15:05:00,
2013-09-14 11:10:00,87.8,74.8,29.50,West,278,0.0,0.0,66,0.00,,,0.00,VWS V14.01,2013-09-14 15:10:00,
2013-09-14 11:15:00,87.8,75.2,29.51,West,278,0.0,0.0,66,0.00,,,0.00,VWS V14.01,2013-09-14 15:15:00,
2013-09-14 11:20:00,88.1,74.9,29.50,NW,316,0.0,0.0,65,0.00,,,0.00,VWS V14.01,2013-09-14 15:20:00,
2013-09-14 11:25:00,88.0,75.4,29.50,NW,316,0.0,0.0,66,0.00,,,0.00,VWS V14.01,2013-09-14 15:25:00,
2013-09-14 11:30:00,88.3,75.8,29.50,NW,316,0.0,0.0,67,0.00,,,0.00,VWS V14.01,2013-09-14 15:30:00,
2013-09-14 11:35:00,88.5,76.0,29.50,NW,316,0.0,0.0,67,0.00,,,0.00,VWS V14.01,2013-09-14 15:35:00,
2013-09-14 11:40:00,88.8,75.9,29.50,NW,316,0.0,0.0,66,0.00,,,0.00,VWS V14.01,2013-09-14 15:40:00,
2013-09-14 11:45:00,89.1,75.9,29.50,NW,316,0.0,0.0,65,0.00,,,0.00,VWS V14.01,2013-09-14 15:45:00,
2013-09-14 11:50:00,89.3,75.7,29.50,NW,316,0.0,0.0,64,0.00,,,0.00,VWS V14.01,2013-09-14 15:50:00,
2013-09-14 11:55:00,89.2,75.5,29.50,NW,316,0.0,0.0,64,0.00,,,0.00,VWS V14.01,2013-09-14 15:55:00,
2013-09-14 12:00:00,89.2,75.7,29.50,NW,316,0.0,0.0,65,0.00,,,0.00,VWS V14.01,2013-09-14 16:00:00,
2013-09-14 12:05:00,89.2,75.9,29.50,NW,316,0.0,0.0,65,0.00,,,0.00,VWS V14.01,2013-09-14 16:05:00,
2013-09-14 12:10:00,89.3,75.2,29.50,NW,316,0.0,0.0,63,0.00,,,0.00,VWS V14.01,2013-09-14 16:10:00,
2013-09-14 12:15:00,89.4,75.1,29.50,NW,316,0.0,0.0,63,0.00,,,0.00,VWS V14.01,2013-09-14 16:15:00,
2013-09-14 12:20:00,89.6,74.9,29.50,NW,316,0.0,0.0,62,0.00,,,0.00,VWS V14.01,2013-09-14 16:20:00,
2013-09-14 12:25:00,89.6,74.9,29.50,NW,316,0.0,0.0,62,0.00,,,0.00,VWS V14.01,2013-09-14 16:25:00,
2013-09-14 12:30:00,89.7,74.6,29.50,NW,316,0.0,0.0,61,0.00,,,0.00,VWS V14.01,2013-09-14 16:30:00,
2013-09-14 12:35:00,89.8,74.4,29.50,NW,316,0.0,0.0,61,0.00,,,0.00,VWS V14.01,2013-09-14 16:35:00,
2013-09-14 12:40:00,89.9,73.8,29.50,NW,316,0.0,0.0,59,0.00,,,0.00,VWS V14.01,2013-09-14 16:40:00,
2013-09-14 12:45:00,90.0,75.0,29.50,NW,316,0.0,0.0,62,0.00,,,0.00,VWS V14.01,2013-09-14 16:45:00,
2013-09-14 12:50:00,90.3,74.5,29.50,NW,316,0.0,0.0,60,0.00,,,0.00,VWS V14.01,2013-09-14 16:50:00,
2013-09-14 12:55:00,90.6,74.8,29.50,NW,316,0.0,0.0,60,0.00,,,0.00,VWS V14.01,2013-09-14 16:55:00,
2013-09-14 13:00:00,91.0,74.9,29.50,NW,316,0.0,0.0,59,0.00,,,0.00,VWS V14.01,2013-09-14 17:00:00,
2013-09-14 13:05:00,91.3,75.6,29.50,NW,316,0.0,0.0,60,0.00,,,0.00,VWS V14.01,2013-09-14 17:05:00,
2013-09-14 13:10:00,91.1,75.0,29.50,NW,316,0.0,2.0,60,0.00,,,0.00,VWS V14.01,2013-09-14 17:10:00,
2013-09-14 13:15:00,91.2,74.8,29.50,NW,316,0.0,0.0,59,0.00,,,0.00,VWS V14.01,2013-09-14 17:15:00,
2013-09-14 13:20:00,91.2,75.1,29.50,NW,316,0.0,0.0,59,0.00,,,0.00,VWS V14.01,2013-09-14 17:20:00,
2013-09-14 13:24:00,91.5,74.7,29.50,NW,316,0.0,0.0,58,0.00,,,0.00,VWS V14.01,2013-09-14 17:24:00,
2013-09-14 13:29:00,91.8,74.9,29.49,NW,316,0.0,0.0,58,0.00,,,0.00,VWS V14.01,2013-09-14 17:29:00,
2013-09-14 13:34:00,91.9,75.6,29.49,NW,316,0.0,0.0,59,0.00,,,0.00,VWS V14.01,2013-09-14 17:34:00,
2013-09-14 13:39:00,91.9,75.3,29.49,WNW,300,0.0,0.0,58,0.00,,,0.00,VWS V14.01,2013-09-14 17:39:00,
2013-09-14 13:44:00,92.4,75.5,29.49,WNW,300,0.0,0.0,58,0.00,,,0.00,VWS V14.01,2013-09-14 17:44:00,
2013-09-14 13:49:00,92.4,75.3,29.49,WNW,300,0.0,0.0,58,0.00,,,0.00,VWS V14.01,2013-09-14 17:49:00,
2013-09-14 13:54:00,92.8,75.3,29.48,WNW,300,0.0,0.0,57,0.00,,,0.00,VWS V14.01,2013-09-14 17:54:00,
2013-09-14 13:59:00,92.9,74.7,29.49,WNW,300,0.0,0.0,56,0.00,,,0.00,VWS V14.01,2013-09-14 17:59:00,
2013-09-14 14:04:00,93.2,75.0,29.48,NW,305,0.0,0.0,56,0.00,,,0.00,VWS V14.01,2013-09-14 18:04:00,
2013-09-14 14:09:00,93.3,74.8,29.48,West,266,0.0,0.0,55,0.00,,,0.00,VWS V14.01,2013-09-14 18:09:00,
2013-09-14 14:14:00,93.0,74.7,29.48,West,266,0.0,0.0,56,0.00,,,0.00,VWS V14.01,2013-09-14 18:14:00,
2013-09-14 14:19:00,92.5,73.9,29.48,West,266,0.0,0.0,55,0.00,,,0.00,VWS V14.01,2013-09-14 18:19:00,
2013-09-14 14:24:00,92.3,74.3,29.48,West,266,0.0,0.0,56,0.00,,,0.00,VWS V14.01,2013-09-14 18:24:00,
2013-09-14 14:29:00,91.9,74.8,29.48,West,266,0.0,0.0,58,0.00,,,0.00,VWS V14.01,2013-09-14 18:29:00,
2013-09-14 14:34:00,91.7,74.4,29.48,West,266,0.0,0.0,57,0.00,,,0.00,VWS V14.01,2013-09-14 18:34:00,
2013-09-14 14:39:00,91.8,75.4,29.48,West,266,0.0,0.0,59,0.00,,,0.00,VWS V14.01,2013-09-14 18:39:00,
2013-09-14 14:44:00,91.8,74.9,29.48,West,266,0.0,0.0,58,0.00,,,0.00,VWS V14.01,2013-09-14 18:44:00,
2013-09-14 14:49:00,91.9,75.3,29.47,West,266,0.0,0.0,59,0.00,,,0.00,VWS V14.01,2013-09-14 18:49:00,
2013-09-14 14:54:00,91.5,75.6,29.48,West,266,0.0,0.0,60,0.00,,,0.00,VWS V14.01,2013-09-14 18:54:00,
2013-09-14 14:59:00,91.6,76.1,29.47,West,266,0.0,0.0,61,0.00,,,0.00,VWS V14.01,2013-09-14 18:59:00,
2013-09-14 15:04:00,91.5,75.6,29.47,West,266,0.0,0.0,60,0.00,,,0.00,VWS V14.01,2013-09-14 19:04:00,
2013-09-14 15:09:00,91.6,74.4,29.47,West,266,0.0,0.0,57,0.00,,,0.00,VWS V14.01,2013-09-14 19:09:00,
2013-09-14 15:14:00,92.1,74.9,29.47,West,266,0.0,0.0,57,0.00,,,0.00,VWS V14.01,2013-09-14 19:14:00,
2013-09-14 15:19:00,92.3,75.1,29.47,West,266,0.0,0.0,57,0.00,,,0.00,VWS V14.01,2013-09-14 19:19:00,
2013-09-14 15:24:00,92.1,74.4,29.47,West,266,0.0,0.0,56,0.00,,,0.00,VWS V14.01,2013-09-14 19:24:00,
2013-09-14 15:29:00,92.0,75.3,29.46,West,266,0.0,0.0,58,0.00,,,0.00,VWS V14.01,2013-09-14 19:29:00,
2013-09-14 15:34:00,92.0,75.4,29.46,West,266,0.0,0.0,59,0.00,,,0.00,VWS V14.01,2013-09-14 19:34:00,
2013-09-14 15:39:00,91.9,75.3,29.46,West,266,0.0,0.0,58,0.00,,,0.00,VWS V14.01,2013-09-14 19:39:00,
2013-09-14 15:44:00,91.8,75.4,29.46,West,266,0.0,0.0,59,0.00,,,0.00,VWS V14.01,2013-09-14 19:44:00,
2013-09-14 15:49:00,91.9,75.8,29.46,West,266,0.0,0.0,60,0.00,,,0.00,VWS V14.01,2013-09-14 19:49:00,
2013-09-14 15:54:00,91.8,75.4,29.46,West,266,0.0,0.0,59,0.00,,,0.00,VWS V14.01,2013-09-14 19:54:00,
2013-09-14 15:59:00,92.0,75.8,29.46,West,266,0.0,0.0,59,0.00,,,0.00,VWS V14.01,2013-09-14 19:59:00,
2013-09-14 16:04:00,92.2,75.6,29.46,West,266,0.0,0.0,58,0.00,,,0.00,VWS V14.01,2013-09-14 20:04:00,
2013-09-14 16:09:00,92.6,76.3,29.46,West,266,0.0,0.0,59,0.00,,,0.00,VWS V14.01,2013-09-14 20:09:00,
2013-09-14 16:14:00,92.8,75.6,29.46,West,266,0.0,0.0,58,0.00,,,0.00,VWS V14.01,2013-09-14 20:14:00,
2013-09-14 16:19:00,92.8,75.1,29.46,West,266,0.0,0.0,57,0.00,,,0.00,VWS V14.01,2013-09-14 20:19:00,
2013-09-14 16:24:00,93.3,74.9,29.46,West,266,0.0,0.0,55,0.00,,,0.00,VWS V14.01,2013-09-14 20:24:00,
2013-09-14 16:29:00,93.2,74.5,29.46,West,266,0.0,0.0,55,0.00,,,0.00,VWS V14.01,2013-09-14 20:29:00,
2013-09-14 16:34:00,93.8,75.0,29.46,West,266,0.0,0.0,55,0.00,,,0.00,VWS V14.01,2013-09-14 20:34:00,
2013-09-14 16:39:00,93.5,74.7,29.46,West,266,0.0,0.0,55,0.00,,,0.00,VWS V14.01,2013-09-14 20:39:00,
2013-09-14 16:44:00,93.1,75.1,29.46,West,266,0.0,0.0,56,0.00,,,0.00,VWS V14.01,2013-09-14 20:44:00,
2013-09-14 16:49:00,93.4,75.2,29.46,West,266,0.0,0.0,56,0.00,,,0.00,VWS V14.01,2013-09-14 20:49:00,
2013-09-14 16:54:00,93.4,74.1,29.46,West,266,0.0,0.0,54,0.00,,,0.00,VWS V14.01,2013-09-14 20:54:00,
2013-09-14 16:59:00,93.7,74.5,29.46,West,266,0.0,0.0,54,0.00,,,0.00,VWS V14.01,2013-09-14 20:59:00,
2013-09-14 17:04:00,94.2,73.7,29.46,West,266,0.0,0.0,52,0.00,,,0.00,VWS V14.01,2013-09-14 21:04:00,
2013-09-14 17:09:00,93.8,73.9,29.46,West,266,0.0,0.0,53,0.00,,,0.00,VWS V14.01,2013-09-14 21:09:00,
2013-09-14 17:14:00,93.8,73.9,29.46,West,266,0.0,0.0,53,0.00,,,0.00,VWS V14.01,2013-09-14 21:14:00,
2013-09-14 17:19:00,93.7,74.4,29.46,West,266,0.0,0.0,54,0.00,,,0.00,VWS V14.01,2013-09-14 21:19:00,
2013-09-14 17:24:00,93.4,74.8,29.46,West,266,0.0,0.0,55,0.00,,,0.00,VWS V14.01,2013-09-14 21:24:00,
2013-09-14 17:29:00,93.5,73.9,29.47,West,266,0.0,0.0,53,0.00,,,0.00,VWS V14.01,2013-09-14 21:29:00,
2013-09-14 17:34:00,93.4,74.1,29.47,West,266,0.0,0.0,54,0.00,,,0.00,VWS V14.01,2013-09-14 21:34:00,
2013-09-14 17:39:00,93.4,73.9,29.47,West,266,0.0,0.0,53,0.00,,,0.00,VWS V14.01,2013-09-14 21:39:00,
2013-09-14 17:44:00,93.5,73.6,29.47,West,266,0.0,0.0,53,0.00,,,0.00,VWS V14.01,2013-09-14 21:44:00,
2013-09-14 17:49:00,93.2,73.2,29.47,West,266,0.0,0.0,52,0.00,,,0.00,VWS V14.01,2013-09-14 21:49:00,
2013-09-14 17:54:00,93.3,74.1,29.48,West,266,0.0,0.0,54,0.00,,,0.00,VWS V14.01,2013-09-14 21:54:00,
2013-09-14 17:59:00,92.9,75.9,29.48,West,266,0.0,0.0,58,0.00,,,0.00,VWS V14.01,2013-09-14 21:59:00,
2013-09-14 18:04:00,92.7,76.9,29.48,West,266,0.0,0.0,60,0.00,,,0.00,VWS V14.01,2013-09-14 22:04:00,
2013-09-14 18:09:00,92.0,76.7,29.48,West,266,0.0,0.0,61,0.00,,,0.00,VWS V14.01,2013-09-14 22:09:00,
2013-09-14 18:14:00,91.3,76.7,29.48,West,266,0.0,0.0,62,0.00,,,0.00,VWS V14.01,2013-09-14 22:14:00,
2013-09-14 18:19:00,91.0,76.7,29.48,West,266,0.0,0.0,63,0.00,,,0.00,VWS V14.01,2013-09-14 22:19:00,
2013-09-14 18:24:00,90.4,76.5,29.48,West,266,0.0,0.0,64,0.00,,,0.00,VWS V14.01,2013-09-14 22:24:00,
2013-09-14 18:29:00,89.9,76.4,29.48,West,266,0.0,0.0,65,0.00,,,0.00,VWS V14.01,2013-09-14 22:29:00,
2013-09-14 18:34:00,89.7,77.0,29.48,West,266,0.0,0.0,66,0.00,,,0.00,VWS V14.01,2013-09-14 22:34:00,
2013-09-14 18:39:00,89.1,76.5,29.48,West,266,0.0,0.0,67,0.00,,,0.00,VWS V14.01,2013-09-14 22:39:00,
2013-09-14 18:44:00,88.6,76.6,29.48,West,266,0.0,0.0,68,0.00,,,0.00,VWS V14.01,2013-09-14 22:44:00,
2013-09-14 18:49:00,88.5,76.4,29.48,West,266,0.0,0.0,68,0.00,,,0.00,VWS V14.01,2013-09-14 22:49:00,
2013-09-14 18:54:00,88.2,76.3,29.49,West,266,0.0,0.0,68,0.00,,,0.00,VWS V14.01,2013-09-14 22:54:00,
2013-09-14 18:59:00,88.1,76.3,29.49,West,266,0.0,0.0,68,0.00,,,0.00,VWS V14.01,2013-09-14 22:59:00,
2013-09-14 19:04:00,87.8,76.2,29.49,West,266,0.0,0.0,69,0.00,,,0.00,VWS V14.01,2013-09-14 23:04:00,
2013-09-14 19:09:00,87.8,76.5,29.49,West,266,0.0,0.0,69,0.00,,,0.00,VWS V14.01,2013-09-14 23:09:00,
2013-09-14 19:14:00,87.7,76.6,29.49,West,266,0.0,0.0,70,0.00,,,0.00,VWS V14.01,2013-09-14 23:14:00,
2013-09-14 19:19:00,87.6,76.7,29.49,West,266,0.0,0.0,70,0.00,,,0.00,VWS V14.01,2013-09-14 23:19:00,
2013-09-14 19:24:00,87.5,76.7,29.49,West,266,0.0,0.0,70,0.00,,,0.00,VWS V14.01,2013-09-14 23:24:00,
2013-09-14 19:29:00,87.3,76.8,29.49,West,266,0.0,0.0,71,0.00,,,0.00,VWS V14.01,2013-09-14 23:29:00,
2013-09-14 19:34:00,86.9,76.6,29.49,West,266,0.0,0.0,72,0.00,,,0.00,VWS V14.01,2013-09-14 23:34:00,
2013-09-14 19:39:00,86.9,76.8,29.50,West,266,0.0,0.0,72,0.00,,,0.00,VWS V14.01,2013-09-14 23:39:00,
2013-09-14 19:44:00,86.7,76.6,29.50,West,266,0.0,0.0,72,0.00,,,0.00,VWS V14.01,2013-09-14 23:44:00,
2013-09-14 19:49:00,86.7,76.5,29.50,West,266,0.0,0.0,72,0.00,,,0.00,VWS V14.01,2013-09-14 23:49:00,
2013-09-14 19:54:00,86.8,76.7,29.50,West,266,0.0,0.0,72,0.00,,,0.00,VWS V14.01,2013-09-14 23:54:00,
2013-09-14 19:59:00,86.6,76.7,29.50,West,266,0.0,0.0,72,0.00,,,0.00,VWS V14.01,2013-09-14 23:59:00,
2013-09-14 20:03:00,86.5,76.7,29.50,West,266,0.0,0.0,73,0.00,,,0.00,VWS V14.01,2013-09-15 00:03:00,
2013-09-14 20:08:00,86.5,76.9,29.50,West,266,0.0,0.0,73,0.00,,,0.00,VWS V14.01,2013-09-15 00:08:00,
2013-09-14 20:13:00,86.4,77.1,29.50,West,266,0.0,0.0,74,0.00,,,0.00,VWS V14.01,2013-09-15 00:13:00,
2013-09-14 20:18:00,86.5,77.2,29.50,West,266,0.0,0.0,74,0.00,,,0.00,VWS V14.01,2013-09-15 00:18:00,
2013-09-14 20:23:00,86.3,77.2,29.50,West,266,0.0,0.0,74,0.00,,,0.00,VWS V14.01,2013-09-15 00:23:00,
2013-09-14 20:28:00,86.3,77.4,29.50,West,266,0.0,0.0,75,0.00,,,0.00,VWS V14.01,2013-09-15 00:28:00,
2013-09-14 20:33:00,86.1,77.3,29.49,West,266,0.0,0.0,75,0.00,,,0.00,VWS V14.01,2013-09-15 00:33:00,
2013-09-14 20:38:00,85.7,77.3,29.50,West,266,0.0,0.0,76,0.00,,,0.00,VWS V14.01,2013-09-15 00:38:00,
2013-09-14 20:43:00,85.5,77.3,29.50,West,266,0.0,0.0,76,0.00,,,0.00,VWS V14.01,2013-09-15 00:43:00,
2013-09-14 20:48:00,85.3,77.2,29.51,West,266,0.0,0.0,77,0.00,,,0.00,VWS V14.01,2013-09-15 00:48:00,
2013-09-14 20:53:00,85.1,77.3,29.51,West,266,0.0,0.0,78,0.00,,,0.00,VWS V14.01,2013-09-15 00:53:00,
2013-09-14 20:58:00,85.0,77.4,29.51,West,266,0.0,0.0,78,0.00,,,0.00,VWS V14.01,2013-09-15 00:58:00,
2013-09-14 21:03:00,85.1,77.4,29.51,West,266,0.0,0.0,78,0.00,,,0.00,VWS V14.01,2013-09-15 01:03:00,
2013-09-14 21:08:00,85.1,77.5,29.51,West,266,0.0,0.0,78,0.00,,,0.00,VWS V14.01,2013-09-15 01:08:00,
2013-09-14 21:13:00,85.1,77.7,29.51,West,266,0.0,0.0,78,0.00,,,0.00,VWS V14.01,2013-09-15 01:13:00,
2013-09-14 21:18:00,85.0,77.7,29.52,West,266,0.0,0.0,79,0.00,,,0.00,VWS V14.01,2013-09-15 01:18:00,
2013-09-14 21:23:00,85.0,77.7,29.52,West,266,0.0,0.0,79,0.00,,,0.00,VWS V14.01,2013-09-15 01:23:00,
2013-09-14 21:28:00,84.9,77.6,29.53,West,266,0.0,0.0,79,0.00,,,0.00,VWS V14.01,2013-09-15 01:28:00,
2013-09-14 21:33:00,84.9,77.7,29.52,West,266,0.0,0.0,79,0.00,,,0.00,VWS V14.01,2013-09-15 01:33:00,
2013-09-14 21:38:00,85.1,77.8,29.52,West,266,0.0,0.0,79,0.00,,,0.00,VWS V14.01,2013-09-15 01:38:00,
2013-09-14 21:43:00,85.2,77.9,29.52,West,266,0.0,0.0,79,0.00,,,0.00,VWS V14.01,2013-09-15 01:43:00,
2013-09-14 21:48:00,84.9,77.7,29.53,West,266,0.0,0.0,79,0.00,,,0.00,VWS V14.01,2013-09-15 01:48:00,
2013-09-14 21:53:00,84.7,77.6,29.53,West,266,0.0,0.0,79,0.00,,,0.00,VWS V14.01,2013-09-15 01:53:00,
2013-09-14 21:58:00,84.4,77.4,29.54,West,266,0.0,0.0,80,0.00,,,0.00,VWS V14.01,2013-09-15 01:58:00,
2013-09-14 22:03:00,84.2,77.4,29.53,West,266,0.0,0.0,80,0.00,,,0.00,VWS V14.01,2013-09-15 02:03:00,
2013-09-14 22:08:00,84.1,77.4,29.54,West,266,0.0,0.0,80,0.00,,,0.00,VWS V14.01,2013-09-15 02:08:00,
2013-09-14 22:13:00,84.2,77.6,29.54,West,266,0.0,0.0,81,0.00,,,0.00,VWS V14.01,2013-09-15 02:13:00,
2013-09-14 22:18:00,84.1,77.6,29.54,West,266,0.0,0.0,81,0.00,,,0.00,VWS V14.01,2013-09-15 02:18:00,
2013-09-14 22:23:00,83.9,77.6,29.54,West,266,0.0,0.0,82,0.00,,,0.00,VWS V14.01,2013-09-15 02:23:00,
2013-09-14 22:28:00,83.6,77.5,29.54,West,266,0.0,0.0,82,0.00,,,0.00,VWS V14.01,2013-09-15 02:28:00,
2013-09-14 22:33:00,83.4,77.5,29.54,West,266,0.0,0.0,82,0.00,,,0.00,VWS V14.01,2013-09-15 02:33:00,
2013-09-14 22:38:00,83.4,77.6,29.55,West,266,0.0,0.0,83,0.00,,,0.00,VWS V14.01,2013-09-15 02:38:00,
2013-09-14 22:43:00,83.5,77.6,29.55,West,266,0.0,0.0,82,0.00,,,0.00,VWS V14.01,2013-09-15 02:43:00,
2013-09-14 22:48:00,83.4,77.5,29.55,West,266,0.0,0.0,82,0.00,,,0.00,VWS V14.01,2013-09-15 02:48:00,
2013-09-14 22:53:00,83.7,77.8,29.55,West,266,0.0,0.0,82,0.00,,,0.00,VWS V14.01,2013-09-15 02:53:00,
2013-09-14 22:58:00,83.7,77.6,29.55,West,266,0.0,0.0,82,0.00,,,0.00,VWS V14.01,2013-09-15 02:58:00,
2013-09-14 23:03:00,83.5,77.6,29.54,West,266,0.0,0.0,82,0.00,,,0.00,VWS V14.01,2013-09-15 03:03:00,
2013-09-14 23:08:00,83.3,77.6,29.54,West,266,0.0,0.0,83,0.00,,,0.00,VWS V14.01,2013-09-15 03:08:00,
2013-09-14 23:13:00,83.1,77.6,29.54,West,266,0.0,0.0,84,0.00,,,0.00,VWS V14.01,2013-09-15 03:13:00,
2013-09-14 23:18:00,83.0,77.6,29.54,West,266,0.0,0.0,84,0.00,,,0.00,VWS V14.01,2013-09-15 03:18:00,
2013-09-14 23:23:00,83.0,77.6,29.54,West,266,0.0,0.0,84,0.00,,,0.00,VWS V14.01,2013-09-15 03:23:00,
2013-09-14 23:28:00,82.8,77.6,29.54,West,266,0.0,0.0,84,0.00,,,0.00,VWS V14.01,2013-09-15 03:28:00,
2013-09-14 23:33:00,82.7,77.4,29.54,West,266,0.0,0.0,84,0.00,,,0.00,VWS V14.01,2013-09-15 03:33:00,
2013-09-14 23:38:00,82.7,77.5,29.54,West,266,0.0,0.0,84,0.00,,,0.00,VWS V14.01,2013-09-15 03:38:00,
2013-09-14 23:43:00,82.7,77.6,29.53,West,266,0.0,0.0,84,0.00,,,0.00,VWS V14.01,2013-09-15 03:43:00,
2013-09-14 23:48:00,82.4,77.3,29.54,West,266,0.0,0.0,85,0.00,,,0.00,VWS V14.01,2013-09-15 03:48:00,
2013-09-14 23:53:00,82.5,77.5,29.54,West,266,0.0,0.0,85,0.00,,,0.00,VWS V14.01,2013-09-15 03:53:00,
2013-09-14 23:58:00,82.4,77.4,29.54,West,266,0.0,0.0,85,0.00,,,0.00,VWS V14.01,2013-09-15 03:58:00,